Location: Boiro
(42.6475°N, 8.8834°W)
Time: 17:18:29
(UTC+01:00)

Explorer 11/Cluster Stage 4 - Pass Details

Date: 05 December 2021
Orbit: 467 x 1255 km, 28.8° (Epoch: 23 January)

Event Time Altitude Azimuth Distance (km) Brightness Sun altitude
Exits shadow 04:19:08 12° 123° (ESE) 2,914 9.7 -48.9°
Drops below altitude 10° 04:19:39 10° 120° (ESE) 3,054 9.9 -48.8°
Sets 04:23:14 0° 108° (ESE) 4,104 10.8 -48.2°
